Weather History for KNTD - March, 2013

Change the Weather History Date:

Monday, March 25, 2013

  Actual Average Record
Temperature  
Mean Temperature 56 °F -  
Max Temperature 65 °F 61 °F 75 °F (2015)
Min Temperature 47 °F 46 °F 39 °F (2002)
Degree Days  
Heating Degree Days 9    
Growing Degree Days 6 (Base 50)    
Moisture  
Dew Point 52 °F    
Average Humidity 80    
Maximum Humidity 88    
Minimum Humidity 73    
Precipitation  
Precipitation 0.00 in - - ()
Sea Level Pressure  
Sea Level Pressure 29.95 in    
Wind  
Wind Speed 4 mph (SW)    
Max Wind Speed 13 mph    
Max Gust Speed -    
Visibility 4 miles    
Events      
Averages and records for this station are not official NWS values.
T = Trace of Precipitation, MM = Missing Value Source: NWS Daily Summary

Daily Weather History Graph

Daily Weather History Graph

Search for Another Location

Airport or City:

Trip Planner

Search our weather history database for the weather conditions in past years. The results will help you decide how hot, cold, wet, or windy it might be!

Date:

Astronomy

Mar. 25, 2013 Rise Set
Actual Time 6:52 AM PDT 7:12 PM PDT
Civil Twilight 6:27 AM PDT 7:37 PM PDT
Nautical Twilight 5:58 AM PDT 8:06 PM PDT
Astronomical Twilight 5:28 AM PDT 8:36 PM PDT
Moon 5:51 PM PDT (3/25) 5:35 AM PDT (3/25)
Length of Visible Light 13h 09m
Length of Day
12h 19m
Waxing Gibbous, 97% of the Moon is Illuminated
Mar 25
Waxing Gibbous
Mar 27
Full
Apr 2
Last Quarter
Apr 10
New
Apr 18
First Quarter

Hourly Weather History & Observations

Time (PDT) Temp. Dew Point Humidity Pressure Visibility Wind Dir Wind Speed Gust Speed Precip Events Conditions
12:54 AM - - N/A% 29.94 in - NE 3.5 mph - N/A   Clear
1:54 AM - - N/A% 29.94 in - Calm Calm - N/A   Clear
2:54 AM - - N/A% 29.94 in - Calm Calm - N/A   Clear
3:54 AM - - N/A% 29.94 in - Calm Calm - N/A   Clear
4:54 AM - - N/A% 29.94 in - NNE 3.5 mph - N/A   Clear
5:54 AM 49.3 °F 41.4 °F 74% 29.94 in 7.0 mi Calm Calm - N/A   Scattered Clouds
6:54 AM 47.7 °F 41.4 °F 79% 29.96 in 7.0 mi Calm Calm - N/A   Scattered Clouds
7:54 AM 50.5 °F 42.4 °F 74% 29.97 in 7.0 mi NNE 4.6 mph - N/A   Scattered Clouds
8:54 AM 54.1 °F 46.2 °F 75% 29.98 in 7.0 mi Calm Calm - N/A   Scattered Clouds
9:54 AM 60.3 °F 51.8 °F 74% 29.99 in 7.0 mi South 4.6 mph - N/A   Scattered Clouds
10:54 AM 61.2 °F 52.7 °F 74% 29.99 in 7.0 mi South 11.5 mph - N/A   Mostly Cloudy
11:08 AM 60.8 °F 53.6 °F 77% 29.99 in 3.0 mi South 11.5 mph - N/A   Mostly Cloudy
11:40 AM 59.0 °F 55.4 °F 88% 29.99 in 1.0 mi South 12.7 mph - N/A   Overcast
11:54 AM 59.7 °F 54.7 °F 83% 29.99 in 1.0 mi South 12.7 mph - N/A   Overcast
12:54 PM 59.5 °F 53.4 °F 80% 29.98 in 2.5 mi SSW 10.4 mph - N/A   Overcast
1:54 PM 61.9 °F 55.0 °F 78% 29.96 in 3.0 mi SW 9.2 mph - N/A   Haze
2:23 PM 62.6 °F 55.4 °F 77% 29.94 in 3.0 mi WSW 8.1 mph - N/A   Haze
2:54 PM 61.9 °F 55.0 °F 78% 29.94 in 3.0 mi WSW 8.1 mph - N/A   Haze
3:54 PM 65.8 °F 56.8 °F 73% 29.93 in 4.0 mi West 8.1 mph - N/A   Haze
4:54 PM 62.1 °F 55.4 °F 79% 29.92 in 4.0 mi West 8.1 mph - N/A   Haze
5:54 PM 60.4 °F 54.9 °F 82% 29.92 in 4.0 mi West 10.4 mph - N/A   Haze
6:07 PM 60.8 °F 55.4 °F 82% 29.91 in 4.0 mi West 8.1 mph - N/A   Haze
6:54 PM 59.7 °F 53.8 °F 81% 29.93 in 4.0 mi West 8.1 mph - N/A   Haze
7:54 PM 57.6 °F 53.1 °F 85% 29.93 in 4.0 mi Calm Calm - N/A   Mostly Cloudy
8:54 PM 55.8 °F 51.1 °F 84% 29.94 in 4.0 mi Calm Calm - N/A   Mostly Cloudy
9:54 PM 56.1 °F 51.6 °F 85% 29.95 in 4.0 mi NNE 4.6 mph - N/A   Scattered Clouds
11:54 PM 55.4 °F 51.8 °F 88% 29.95 in 4.0 mi Calm Calm - N/A   Clear